Tenerife, Spain

1:12 AM WEST on October 17, 2017 (GMT +0100)
Tenerife

Weather History for GCXO - August, 2017

Change the Weather History Date:

Sunday, August 13, 2017

  Actual Average Record
Temperature  
Mean Temperature 72 °F -  
Max Temperature 79 °F 74 °F 96 °F (2013)
Min Temperature 64 °F 61 °F 59 °F (2002)
Cooling Degree Days 6    
Growing Degree Days 22 (Base 50)    
Moisture  
Dew Point 50 °F    
Average Humidity 50    
Maximum Humidity 100    
Minimum Humidity 14    
Precipitation  
Precipitation 0.00 in - - ()
Sea Level Pressure  
Sea Level Pressure 30.09 in    
Wind  
Wind Speed 12 mph ()    
Max Wind Speed 18 mph    
Max Gust Speed -    
Visibility 8.5 miles    
Events      
Averages and records for this station are not official NWS values.
T = Trace of Precipitation, MM = Missing Value Source: Averaged Metar Reports

Daily Weather History Graph

Daily Weather History Graph

Search for Another Location

Airport or City:

Trip Planner

Search our weather history database for the weather conditions in past years. The results will help you decide how hot, cold, wet, or windy it might be!

Date:

Astronomy

Aug. 13, 2017 Rise Set
Actual Time 7:33 AM WEST 8:46 PM WEST
Civil Twilight 7:08 AM WEST 9:10 PM WEST
Nautical Twilight 6:39 AM WEST 9:40 PM WEST
Astronomical Twilight 6:08 AM WEST 10:10 PM WEST
Moon 12:02 AM WEST (8/13) 12:52 PM WEST (8/13)
Length of Visible Light 14h 01m
Length of Day
13h 12m
Waning Gibbous, 68% of the Moon is Illuminated
Aug 13
Waning Gibbous
Aug 15
Last Quarter
Aug 21
New
Aug 29
First Quarter
Sep 6
Full

Hourly Weather History & Observations

Time (WEST) Temp. Dew Point Humidity Pressure Visibility Wind Dir Wind Speed Gust Speed Precip Events Conditions
12:00 AM 69.8 °F 55.4 °F 60% 30.15 in 6.2 mi West 15.0 mph - N/A   Unknown
12:30 AM 69.8 °F 46.4 °F 43% 30.15 in 6.2 mi West 15.0 mph - N/A   Unknown
1:00 AM 70 °F 40 °F 22% 30.09 in 19 mi West 13.8 mph - -  
1:00 AM 69.8 °F 41.0 °F 35% 30.15 in 6.2 mi West 12.7 mph - N/A   Unknown
1:30 AM 68.0 °F 39.2 °F 35% 30.15 in 6.2 mi West 12.7 mph - N/A   Unknown
2:00 AM 69.8 °F 35.6 °F 28% 30.12 in 6.2 mi West 11.5 mph - N/A   Unknown
2:30 AM 68.0 °F 35.6 °F 30% 30.12 in 6.2 mi West 11.5 mph - N/A   Unknown
3:00 AM 68.0 °F 39.2 °F 35% 30.12 in 6.2 mi West 9.2 mph - N/A   Unknown
3:30 AM 68.0 °F 41.0 °F 37% 30.12 in 6.2 mi West 9.2 mph - N/A   Unknown
4:00 AM 68 °F 39 °F 23% 30.05 in 19 mi West 11.5 mph - -  
4:00 AM 68.0 °F 39.2 °F 35% 30.09 in 6.2 mi West 10.4 mph - N/A   Unknown
4:30 AM 66.2 °F 37.4 °F 35% 30.09 in 6.2 mi West 11.5 mph - N/A   Unknown
5:00 AM 66.2 °F 39.2 °F 37% 30.09 in 6.2 mi West 9.2 mph - N/A   Unknown
5:30 AM 66.2 °F 37.4 °F 35% 30.09 in 6.2 mi West 9.2 mph - N/A   Unknown
6:00 AM 66.2 °F 39.2 °F 37% 30.09 in - West 9.2 mph - N/A   Clear
6:30 AM 66.2 °F 37.4 °F 35% 30.09 in - West 10.4 mph - N/A   Clear
7:00 AM 66 °F 35 °F 21% 30.05 in 19 mi West 11.5 mph - -   Clear
7:00 AM 66.2 °F 35.6 °F 32% 30.09 in - West 11.5 mph - N/A   Clear
7:30 AM 66.2 °F 37.4 °F 35% 30.09 in - West 11.5 mph - N/A   Clear
8:00 AM 64.4 °F 35.6 °F 34% 30.09 in - West 12.7 mph - N/A   Clear
9:30 AM 75.2 °F 23.0 °F 14% 30.09 in - WNW 16.1 mph - N/A   Clear
10:00 AM 74 °F 37 °F 16% 30.03 in 19 mi WNW 17.3 mph - -   Scattered Clouds
10:00 AM 73.4 °F 32.0 °F 22% 30.12 in - WNW 17.3 mph - N/A   Clear
10:30 AM 75.2 °F 42.8 °F 31% 30.09 in - WNW 17.3 mph - N/A   Clear
11:00 AM 75.2 °F 44.6 °F 34% 30.12 in - WNW 15.0 mph - N/A   Clear
11:30 AM 78.8 °F 48.2 °F 34% 30.12 in - NW 12.7 mph - N/A   Clear
12:00 PM 77.0 °F 46.4 °F 34% 30.12 in - NW 13.8 mph - N/A   Clear
12:30 PM 77.0 °F 50.0 °F 39% 30.12 in - NW 13.8 mph - N/A   Clear
1:00 PM 78 °F 51 °F 28% 30.01 in 19 mi NW 13.8 mph - -   Clear
1:00 PM 75.2 °F 51.8 °F 44% 30.12 in - NW 12.7 mph - N/A   Clear
1:30 PM 78.8 °F 55.4 °F 44% 30.09 in - NW 16.1 mph - N/A   Clear
2:00 PM 78.8 °F 55.4 °F 44% 30.09 in - NW 15.0 mph - N/A   Clear
2:30 PM 75.2 °F 55.4 °F 50% 30.09 in - NW 15.0 mph - N/A   Clear
3:00 PM 75.2 °F 57.2 °F 53% 30.09 in - WNW 17.3 mph - N/A   Clear
3:30 PM 75.2 °F 53.6 °F 47% 30.09 in - WNW 18.4 mph - N/A   Clear
4:00 PM 76 °F 60 °F 47% 29.99 in 19 mi WNW 16.1 mph - -   Scattered Clouds
4:00 PM 77.0 °F 60.8 °F 57% 30.09 in 6.2 mi NW 16.1 mph - N/A   Partly Cloudy
4:30 PM 73.4 °F 60.8 °F 65% 30.09 in 6.2 mi WNW 16.1 mph - N/A   Partly Cloudy
5:00 PM 75.2 °F 64.4 °F 69% 30.09 in 6.2 mi WNW 15.0 mph - N/A   Partly Cloudy
5:30 PM 71.6 °F 62.6 °F 73% 30.06 in 6.2 mi NW 15.0 mph - N/A   Partly Cloudy
6:00 PM 73.4 °F 64.4 °F 73% 30.06 in 6.2 mi WNW 15.0 mph - N/A   Partly Cloudy
6:30 PM 71.6 °F 64.4 °F 78% 30.06 in 6.2 mi WNW 15.0 mph - N/A   Partly Cloudy
7:00 PM 72 °F 64 °F 68% 29.98 in 16 mi WNW 16.1 mph - -   Scattered Clouds
7:00 PM 73.4 °F 64.4 °F 73% 30.06 in 6.2 mi WNW 16.1 mph - N/A   Partly Cloudy
7:30 PM 69.8 °F 62.6 °F 78% 30.06 in 6.2 mi WNW 16.1 mph - N/A   Partly Cloudy
8:00 PM 68.0 °F 62.6 °F 83% 30.06 in 6.2 mi WNW 13.8 mph - N/A   Partly Cloudy
8:30 PM 66.2 °F 62.6 °F 88% 30.06 in 6.2 mi WNW 16.1 mph - N/A   Partly Cloudy
9:00 PM 66.2 °F 62.6 °F 88% 30.06 in 6.2 mi WNW 16.1 mph - N/A   Partly Cloudy
9:30 PM 64.4 °F 62.6 °F 94% 30.06 in 6.2 mi West 15.0 mph - N/A   Partly Cloudy
10:30 PM 64.4 °F 62.6 °F 94% 30.09 in 6.2 mi West 10.4 mph - N/A   Scattered Clouds
11:00 PM 64.4 °F 64.4 °F 100% 30.09 in 4.3 mi West 9.2 mph - N/A   Scattered Clouds
11:13 PM 64.4 °F 64.4 °F 100% 30.09 in 3.7 mi West 11.5 mph - N/A   Mostly Cloudy
11:30 PM 64.4 °F 64.4 °F 100% 30.09 in 4.3 mi West 12.7 mph - N/A   Scattered Clouds